This demonstration page uses our WeatherBlox Daily Observations layout. Learn more.

Left ArrowRight Arrow

41.12389, -100.76542

Hourly Observations for September 20, 2020

Temp ( °F °C ) Dew Point ( °F °C ) Humidity (%) Winds ( mph kmh ) Pressure ( in mb ) Visibility ( mi km ) Precip ( " mm )
12:53 am 00:53 Clear 67 19.4 50 10 55 55 ESE 13 20 29.88 1012 10 16 0.00 0.00
1:53 am 01:53 Clear 67 19.4 50 10 55 55 SE 14 22 29.86 1011 10 16 0.00 0.00
2:53 am 02:53 Clear 66 18.9 50 10 56 56 SSE 10 17 29.85 1011 10 16 0.00 0.00
3:53 am 03:53 Clear 67 19.4 50 10 55 55 SE 3 6 29.87 1012 10 16 0.00 0.00
4:53 am 04:53 Clear 65 18.3 50 10 59 59 ESE 9 15 29.87 1011 10 16 0.00 0.00
5:53 am 05:53 Clear 62 16.7 51 10.6 67 67 SE 6 9 29.89 1012 10 16 0.00 0.00
6:53 am 06:53 Mostly Clear with Light Rain 62 16.7 52 11.1 70 70 ESE 6 9 29.91 1013 10 16 0.00 0.00
7:53 am 07:53 Sunny 60 15.6 52 11.1 75 75 E 9 15 29.93 1014 10 16 0.00 0.00
8:53 am 08:53 Sunny 63 17.2 52 11.1 68 68 SSE 5 7 29.94 1014 10 16 0.00 0.00
9:53 am 09:53 Sunny 66 18.9 53 11.7 63 63 S 6 9 29.96 1015 10 16 0.00 0.00
10:53 am 10:53 Sunny 69 20.6 54 12.2 59 59 SSW 5 7 29.97 1015 10 16 0.00 0.00
11:53 am 11:53 Sunny 74 23.3 54 12.2 50 50 VRB 3 6 29.96 1015 10 16 0.00 0.00
12:53 pm 12:53 Sunny 77 25 53 11.7 43 43 VRB 3 6 29.98 1015 10 16 0.00 0.00
1:53 pm 13:53 Sunny 81 27.2 53 11.7 38 38 VRB 5 7 29.95 1014 10 16 0.00 0.00
2:53 pm 14:53 Sunny 81 27.2 53 11.7 38 38 SE 7 11 29.94 1014 10 16 0.00 0.00
3:53 pm 15:53 Sunny 84 28.9 54 12.2 36 36 SE 6 9 29.93 1014 10 16 0.00 0.00
4:53 pm 16:53 Sunny 84 28.9 53 11.7 34 34 ESE 6 9 29.93 1014 10 16 0.00 0.00
5:53 pm 17:53 Sunny 85 29.4 53 11.7 33 33 E 5 7 29.93 1014 10 16 0.00 0.00
6:53 pm 18:53 Sunny 80 26.7 57 13.9 45 45 E 5 7 29.95 1014 10 16 0.00 0.00
7:53 pm 19:53 Clear 72 22.2 54 12.2 53 53 E 3 6 29.96 1015 10 16 0.00 0.00
8:53 pm 20:53 Clear 64 17.8 54 12.2 70 70 Calm 29.99 1016 10 16 0.00 0.00
9:53 pm 21:53 Clear 69 20.6 54 12.2 59 59 SE 7 11 30.00 1016 10 16 0.00 0.00
10:53 pm 22:53 Clear 71 21.7 52 11.1 51 51 SE 6 9 30.01 1016 10 16 0.00 0.00
11:53 pm 23:53 Clear 69 20.6 52 11.1 55 55 SE 9 15 30.01 1016 10 16 0.00 0.00

Powered by AerisWeather